Weather in Sherauty

Russia / Chuvash Republic     55°07′48″N   47°21′41″E
temp.,
°C
wind,
m/s
gust,
m/s
humid.,
%
clouds,
%
prec.,
mm/h
press.,
hPa
HPBL,
m
15 april, thu
thu1500:00+11sse36860 0.0 1022100
03:00+10sse22880 0.0 102123
06:00+10sse348565 0.0 102172
09:00+16sse34543 0.0 1020397
12:00+19sse23374 0.0 10191684
15:00+20se223492 0.0 10182108
18:00+16e22504 0.0 101824
21:00+13ene22622 0.0 101919
16 april, fri
fri1600:00+11nne36705 0.0 102095
03:00+8ne41098100 0.0 1021309
06:00+8ene5990100 0.0 1022459
09:00+9ene6982100 0.0 1023591
12:00+13ene676764 0.0 1024856
15:00+13ene676172 0.0 10241011
18:00+11ene596844 0.0 1024733
21:00+7ne5117225 0.0 1025374
17 april, sat
sat1700:00+6ne4117520 0.0 1026292
03:00+4ene410745 0.0 1026252
06:00+3ene410735 0.0 1027291
09:00+8ene68555 0.0 1027587
12:00+12ene67445 0.0 10261020
15:00+13ene56345 0.0 10261241
18:00+10ene48425 0.0 1026295
21:00+6ene39610 0.0 1025187
18 april, sun
sun1800:00+4ene410690 0.0 1025219
03:00+3ene38760 0.0 1025160
06:00+3ene310740 0.0 1025260
09:00+9ene57540 0.0 1024795
12:00+12ene67400 0.0 10231383
15:00+12ene67375 0.0 10231791
18:00+10ene5952100 0.0 1024629
21:00+6ene71272100 0.0 1026692
19 april, mon
mon1900:00+5ene61064100 0.0 1027873
03:00+2ene61253100 0.0 1028587
06:00+1ene61265100 0.0 1029613
09:00+4ene811442 0.0 10301078
12:00+6ene810340 0.0 10301593
15:00+7e810300 0.0 10301754
18:00+5e610360 0.0 10311305
21:00+2ene512450 0.0 1033528